Cloud_Cover
100 100 100 32 29 31 9 0 7 2 0 2 5 5 5 5 5 5 56 18 10 91 100 100 100 100 100 100 100 100 100 96 100 25 6 5 40 63 0 0 0 0 0 0 0
100 100 100 100 31 31 13 0 2 0 0 5 5 5 5 5 5 5 5 12 21 100 100 100 100 100 100 100 100 100 100 97 31 100 45 6 8 45 4 0 0 0 0 0 0
100 100 100 100 28 33 20 0 2 0 0 3 5 5 5 5 48 5 5 5 100 100 100 100 100 100 100 100 100 100 100 37 98 99 100 100 14 0 0 0 0 0 0 0 0
100 100 100 100 70 65 35 23 16 0 4 4 5 51 100 49 78 5 5 35 100 100 100 100 100 100 100 100 100 100 100 23 100 88 58 91 78 98 1 0 5 18 3 0 0
100 100 100 100 100 54 34 22 4 0 0 5 5 4 5 6 14 34 90 100 100 100 100 100 100 100 100 100 100 100 100 100 99 100 97 52 77 8 7 1 52 9 100 22 3
100 100 100 100 93 30 12 0 0 0 0 0 3 5 95 12 6 67 91 100 100 100 100 100 100 100 100 100 100 100 94 100 85 99 100 75 93 34 95 78 100 100 100 100 88
100 100 100 100 20 4 3 0 0 0 0 5 5 6 100 77 52 5 100 100 100 100 100 100 100 100 100 100 100 100 36 10 13 98 97 6 88 100 77 11 96 98 46 72 96
100 100 100 94 5 4 0 0 0 0 0 0 7 54 39 60 48 6 100 100 100 100 100 100 100 100 100 100 100 97 98 98 100 100 100 100 100 96 29 70 95 100 100 54 100
100 100 100 88 5 5 0 0 0 0 0 0 35 38 94 45 9 72 80 99 100 100 100 100 100 100 100 100 66 67 100 98 90 100 100 100 100 100 100 100 99 96 100 100 100
100 100 100 27 5 5 1 0 0 0 0 0 3 18 32 37 5 96 67 30 98 48 59 100 100 100 99 98 88 78 99 100 100 40 58 11 16 95 100 100 100 62 100 100 95
100 100 100 1 5 4 5 5 0 0 3 0 3 5 2 94 81 64 100 45 5 69 100 97 6 75 100 58 23 83 69 60 9 44 47 98 4 5 5 0 58 100 99 100 100
100 100 98 0 5 13 7 3 0 0 1 0 0 3 93 75 64 85 5 5 5 25 60 100 49 75 94 92 13 5 19 3 39 6 0 7 0 67 33 4 3 99 98 100 100
100 100 64 0 8 6 5 5 3 0 0 0 0 0 4 100 97 100 84 47 33 21 85 7 69 63 90 20 5 17 12 4 5 5 78 2 0 0 0 0 0 5 20 57 83
100 100 4 0 6 1 3 0 0 0 0 0 0 0 0 13 100 100 100 100 96 70 97 87 71 86 91 4 5 45 1 2 2 0 2 0 0 0 0 0 0 0 0 84 100
100 100 1 77 7 0 0 2 0 0 0 0 0 0 0 0 66 100 100 100 74 58 62 99 65 6 4 1 36 92 75 62 4 8 9 7 2 0 0 0 2 0 0 0 0
100 80 2 0 3 0 5 1 4 2 0 0 0 0 0 0 0 20 100 87 0 0 0 48 99 4 2 4 100 18 9 93 75 13 70 5 0 3 0 0 0 0 0 0 0
100 54 65 0 0 1 0 1 0 0 0 0 0 0 0 5 0 49 1 0 3 3 0 0 0 0 0 2 12 5 5 2 5 28 5 1 8 94 0 0 0 0 0 0 0
100 24 7 0 0 5 5 3 5 2 1 2 7 3 4 4 3 3 5 4 4 4 17 26 0 3 0 3 2 4 4 0 4 5 10 5 0 0 0 0 0 0 0 0 0
14 24 0 0 4 5 5 41 70 64 52 51 80 23 0 5 9 42 3 8 45 6 52 81 50 5 2 4 8 0 0 0 5 3 2 3 0 0 0 0 0 0 0 0 0
2 2 0 0 5 4 5 3 5 5 4 39 95 93 85 47 38 98 100 100 100 65 40 29 0 8 3 5 7 1 0 0 0 4 4 0 0 0 0 0 0 0 0 0 0
2 4 0 0 5 5 2 2 5 5 38 97 98 8 43 14 3 46 94 100 99 5 60 7 5 28 2 1 0 0 0 0 0 0 0 0 0 0 0 0 0 0 0 0 0
5 3 0 5 9 5 3 0 0 0 5 100 68 5 6 2 0 5 3 100 74 100 95 35 38 0 0 0 0 0 0 3 0 0 0 0 0 0 0 0 0 0 0 0 0
2 3 0 5 5 5 3 0 0 0 0 19 53 89 4 0 1 5 5 4 97 100 100 100 76 0 0 0 0 0 2 0 0 0 0 0 0 0 0 0 0 0 0 0 0
1 0 0 5 5 5 5 0 0 0 0 0 0 4 4 0 0 0 5 2 0 1 48 0 0 0 0 0 0 0 0 0 0 0 0 0 0 0 0 0 0 0 0 0 0
0 0 0 0 40 5 3 0 0 0 0 0 0 0 0 0 0 0 0 0 0 0 0 0 0 0 0 0 0 0 0 0 0 0 0 0 0 0 0 0 0 0 0 0 0
0 0 0 0 0 0 0 0 0 0 0 0 0 0 0 0 0 0 0 0 0 0 0 0 0 0 0 0 0 0 0 0 0 0 0 0 0 0 0 0 0 0 0 0 0
0 0 0 0 0 0 0 0 0 0 0 0 0 0 0 0 0 0 0 0 0 0 0 0 0 0 0 0 0 0 0 0 0 0 0 0 0 0 0 0 0 0 0 0 0